KUIPER-00095

Satellite information

Favourite Embed

Satellite Type and Status

PAYLOADIN ORBIT

Key statistics

Satellite KUIPER-00095 at a glance.

Uptime

28

Days in orbit

Revolutions

≈ 15.4

Per day

Orbit

LEO

Low Earth Orbit

Inclination

51.9

Latest

Satellite identification and parameters

Extended collection of information and parameters for KUIPER-00095.

Object identification

Identified? True

Debris? False

Object name: KUIPER-00095

International designator: 2025-171C

Object number (NORAD): 65134

Object ID (CCSDS): 65134

Country: UNITED STATES OF AMERICA (US)

Current information (Y/N): Y

RCS size: LARGE

Orbital parameters

Period: 93.772 minutes

Inclination: 51.8758 deg

SMA: 6837.136 km

Apoapsis: 461.817 km

Periapsis: 456.184 km

RAAN: 273.2318 deg

Eccentricy: 0.00041192

Argument of periapsis: 252.5428 deg

Mean anomaly: 107.5108 deg

Mean motion: 15.35647253 rev/day

Mean motion (dot): 0.00024571 rev/day2

B* drag term: 0.00070664902 1/REarth

Two-line elements (TLE)

Creation date: Sept. 8, 2025, 3:16 a.m.

Reference frame: TEME

Reference center: EARTH

Epoch: Sept. 7, 2025, 7:05 p.m. UTC

TLE line 0: 0 KUIPER-00095

TLE line 1: 1 65134U 25171C 25250.79533134 .00024571 00000-0 70665-3 0 9990

TLE line 2: 2 65134 51.8758 273.2318 0004119 252.5428 107.5108 15.35647253 5440

Live tracking on map

Real-time ground track for satellite KUIPER-00095.

In-orbit conjunctions

There are no conjunctions computed for KUIPER-00095, at the moment. Check back to stay up to date, as we update our databases every day.

Go to all conjunctions

Associated space launch

Second of a three launches contract for Amazon's Kuiper low Earth orbit satellite internet constellation. 24 satellites are on board.

KUIPER-00095 was lifted into orbit during the mission ‘Falcon 9 Block 5 | Project Kuiper (KF-02)’, on board a Falcon 9 space rocket.

The launch took place on Aug. 11, 2025, 12:35 p.m. from Space Launch Complex 40.

For more information about the launch, click the button.

Launch to space Falcon 9 Block 5 | Project Kuiper (KF-02)
Falcon 9 Block 5 | Project Kuiper (KF-02)

Agency: Kuiper Systems LLC

Status: Launch Successful

Launch date: Aug. 11, 2025, 12:35 p.m. UTC

Rocket: Falcon 9

Launch pad: Space Launch Complex 40

Location: Cape Canaveral SFS, FL, USA

...

Latest news about this satellite

News about space launch
B1091 “A Heavy Core in Falcon 9 Clothing”

SpaceX’s recent launch involved another successful landing of its Falcon 9 booster, but this time… The post B1091 “A Heavy Core in Falcon 9 Clothing” appeared first on NASASpaceFlight.com.

News about space launch
Live Coverage: SpaceX Falcon 9 to make another attempt to launch Amazon Project Kuiper mission

Liftoff from Space Launch Complex 40 at Cape Canaveral Space Force Station in Florida is scheduled for 8:57 a.m. EDT (1257 UTC), after three earlier attempts were scrubbed.

News about space launch
Live coverage: SpaceX to launch 24 Amazon Project Kuiper satellites on Falcon 9 rocket from Cape Canaveral

The mission, dubbed KF-02, is the fourth flight to date of Project Kuiper satellites. Liftoff from pad 40 at Cape Canaveral Space Force Station is scheduled for 10:01 a.m. EDT (1401 UTC).


Newsletter sign-up

Weekly statistics, charts and insights to help you stay on top of the space industry.